This is the latest recevied weather packets stored in our database for station/object DF7PN-WX. If no packets are shown the sender has not sent any weather packets the latest 1 day(s).
| Time | Temp. | Humidity | Pressure | Rain* | Wind** | Luminosity | Snow |
|---|---|---|---|---|---|---|---|
| 1778065296 | 18.33° C | 64% | 1006.6 hPa | - | - | - | - |
| 1778064996 | 18.33° C | 63% | 1006.7 hPa | - | - | - | - |
| 1778064696 | 18.89° C | 62% | 1006.7 hPa | - | - | - | - |
| 1778064396 | 18.89° C | 61% | 1006.7 hPa | - | - | - | - |
| 1778064096 | 18.89° C | 64% | 1006.7 hPa | - | - | - | - |
| 1778063496 | 18.33° C | 66% | 1006.8 hPa | - | - | - | - |
| 1778061395 | 17.78° C | 68% | 1006.7 hPa | - | - | - | - |
| 1778061095 | 17.78° C | 70% | 1006.7 hPa | - | - | - | - |
| 1778060795 | 17.78° C | 70% | 1006.6 hPa | - | - | - | - |
| 1778060495 | 17.78° C | 73% | 1006.5 hPa | - | - | - | - |
| 1778060195 | 17.22° C | 73% | 1006.6 hPa | - | - | - | - |
| 1778059895 | 17.22° C | 73% | 1006.7 hPa | - | - | - | - |
| 1778059595 | 16.67° C | 76% | 1006.6 hPa | - | - | - | - |
| 1778059295 | 17.22° C | 78% | 1006.5 hPa | - | - | - | - |
| 1778058995 | 16.67° C | 76% | 1006.6 hPa | - | - | - | - |
| 1778057194 | 17.22° C | 73% | 1006.7 hPa | - | - | - | - |
| 1778056594 | 17.22° C | 77% | 1006.6 hPa | - | - | - | - |
| 1778056294 | 16.67° C | 77% | 1006.5 hPa | - | - | - | - |
| 1778055994 | 16.67° C | 78% | 1006.4 hPa | - | - | - | - |
| 1778055694 | 16.11° C | 80% | 1006.4 hPa | - | - | - | - |
| 1778055394 | 16.11° C | 81% | 1006.4 hPa | - | - | - | - |
| 1778053893 | 15.56° C | 86% | 1006.4 hPa | - | - | - | - |
| 1778053593 | 15° C | 89% | 1006.5 hPa | - | - | - | - |
| 1778053293 | 15° C | 90% | 1006.5 hPa | - | - | - | - |
| 1778052993 | 14.44° C | 91% | 1006.5 hPa | - | - | - | - |
* Rain since midnight (hover to see other rain measurements)
** Current wind speed in m/s (hover to see current wind gust speed)